Weather Roundup
Issued by NWS Chicago, IL

Home | Current Version | Previous Version | Graphics & Text | Print | Product List | Glossary On
Versions: 1 2 3 4 5 6 7 8 9 10 11 12 13 14 15 16 17 18 19 20 21 22 23 24 25 26 27 28 29 30 31 32 33 34 35 36 37 38 39 40 41 42 43 44 45 46 47 48 49 50
371
NZUS59 KLOT 190208
HRRLOT

CHICAGO AREA WEATHER ROUNDUP
NATIONAL WEATHER SERVICE CHICAGO/ROMEOVILLE IL
900 PM CDT FRI AUG 18 2017

NOTE: "FAIR" INDICATES FEW OR NO CLOUDS BELOW 12,000 FEET WITH NO
SIGNIFICANT WEATHER AND/OR OBSTRUCTIONS TO VISIBILITY.

* THESE STATIONS ARE NOT UNDER NWS QUALITY CONTROL. THEY ALSO MAY NOT
  REPORT WEATHER SUCH AS PRECIPITATION OR FOG.

ILZ005-006-012>014-019>023-190300-
NORTHEAST ILLINOIS

CITY           SKY/WX    TMP DP  RH WIND       PRES   REMARKS
OHARE          MOCLDY    76  61  59 NW8       29.87R
MIDWAY         MOCLDY    77  60  55 W7        29.87R
AURORA         MOCLDY    70  64  81 CALM      29.89R
LANSING*       CLEAR     72  59  64 SW3       29.88R
JOLIET*        CLOUDY    76  64  67 CALM      29.89R
WAUKEGAN       CLOUDY    69  63  81 CALM      29.86R
DUPAGE AIRPORT PTCLDY    70  63  78 W6        29.88R
WHEELING       MOCLDY    75  64  68 W3        29.88R
MORRIS*        MOCLDY    71  65  82 W3        29.88R
LEWIS AIRPORT* CLOUDY    72  61  68 NW6       29.88R
NORTHERLY ISL    N/A     77  58  51 NW7         N/A
$$

WIZ051-052-058>065-066-070>072-190300-
SOUTHEAST WISCONSIN

CITY           SKY/WX    TMP DP  RH WIND       PRES   REMARKS
MILWAUKEE      MOCLDY    74  60  61 NW10      29.86R
KENOSHA*       CLOUDY    71  60  68 W8        29.88R
RACINE*        CLOUDY    72  62  71 W7        29.88R
WAUKESHA       PTCLDY    64  57  77 W8        29.89R
WEST BEND      CLOUDY    68  61  77 CALM      29.87R
$$

INZ001>003-010>013-019-020-190300-
NORTHWEST INDIANA

CITY           SKY/WX    TMP DP  RH WIND       PRES   REMARKS
GARY*          PTCLDY    77  59  53 W7        29.88R
MICHIGAN CITY* NOT AVBL
RENSSELAER*    NOT AVBL
VALPARAISO     CLEAR     74  63  68 W8        29.89R
$$

LMZ740>746-190300-
SOUTHERN LAKE MICHIGAN

STATION/POSITION TIME  SKY/WX   TEMP WIND        PRES    VSBY
                                AIR  DIR/SP/G
                 (UTC)          (F)  (DEG/KT/KT) (MB)    (MI)
HARRISON CRIB    0140            75  170/  4/  6   N/A
BURNHAM HARBOR   NOT AVBL
CALUMET HARBOR   0148            77  230/  3/  7 1011.0R
BURNS HARBOR     0200            74   70/  3/  7 1012.2
MICHIGAN CITY    0140            72  100/  3/  4   N/A
$$

ABBREVIATIONS USED IN REMARKS
   TC - TEMPERATURE IN CELSIUS
  WCI - WIND CHILL INDEX
   HX - HEAT INDEX
  VSB - VISIBILITY
$$




USA.gov is the U.S. government's official web portal to all federal, state and local government web resources and services.